This demonstration page uses our WeatherBlox Daily Observations layout. Learn more.

Hourly Observations for May 26, 2019

Temp ( °F °C ) Dew Point ( °F °C ) Humidity (%) Winds ( mph kmh ) Pressure ( in mb ) Visibility ( mi km ) Precip ( " mm )
12:15 am 00:15 Clear 70 21 68 20 94 94 Calm 30.06 1018 10 16.09344 0 0
12:35 am 00:35 Partly Cloudy 70 21 68 20 94 94 E 3 6 30.06 1018 10 16.09344 0 0
12:55 am 00:55 Clear 68 20 68 20 100 100 NNE 3 6 30.06 1018 10 16.09344 0 0
1:15 am 01:15 Clear 68 20 68 20 100 100 Calm 30.03 1017 10 16.09344 0 0
1:35 am 01:35 Partly Cloudy 68 20 68 20 100 100 E 8 13 30.03 1017 10 16.09344 0 0
1:55 am 01:55 Mostly Cloudy 68 20 68 20 100 100 ESE 8 13 30.03 1017 10 16.09344 0 0
2:15 am 02:15 Partly Cloudy 68 20 68 20 100 100 ESE 8 13 30.03 1017 10 16.09344 0 0
2:35 am 02:35 Partly Cloudy 66 19 66 19 100 100 Calm 30.03 1017 10 16.09344 0 0
2:55 am 02:55 Mostly Cloudy 64 18 64 18 100 100 Calm 30.03 1017 10 16.09344 0 0
3:15 am 03:15 Partly Cloudy 64 18 64 18 100 100 Calm 30.03 1017 10 16.09344 0 0
3:35 am 03:35 Clear 64 18 64 18 100 100 Calm 30.03 1017 10 16.09344 0 0
3:55 am 03:55 Clear 64 18 64 18 100 100 WSW 3 6 30.03 1017 10 16.09344 0 0
4:15 am 04:15 Clear 64 18 64 18 100 100 Calm 30.03 1017 10 16.09344 0 0
4:35 am 04:35 Clear 64 18 64 18 100 100 Calm 30.03 1017 10 16.09344 0 0
4:55 am 04:55 Clear 64 18 64 18 100 100 Calm 30.03 1017 10 16.09344 0 0
5:15 am 05:15 Clear 64 18 64 18 100 100 SW 3 6 30.03 1017 10 16.09344 0 0
5:35 am 05:35 Clear 64 18 64 18 100 100 Calm 30.03 1017 10 16.09344 0 0
5:55 am 05:55 Sunny 64 18 64 18 100 100 Calm 30.03 1017 10 16.09344 0 0
6:15 am 06:15 Sunny 63 17 63 17 100 100 Calm 30.03 1017 10 16.09344 0 0
6:35 am 06:35 Sunny 64 18 64 18 100 100 Calm 30.03 1017 10 16.09344 0 0
6:55 am 06:55 Sunny 66 19 66 19 100 100 Calm 30.03 1017 10 16.09344 0 0
7:15 am 07:15 Sunny 66 19 66 19 100 100 W 5 7 30.03 1017 10 16.09344 0 0
7:35 am 07:35 Sunny 70 21 68 20 94 94 WSW 3 6 30.06 1018 10 16.09344 0 0
7:55 am 07:55 Sunny 72 22 68 20 88 88 Calm 30.06 1018 10 16.09344 0 0
8:15 am 08:15 Sunny 73 23 68 20 83 83 Calm 30.06 1018 10 16.09344 0 0
8:35 am 08:35 Sunny 77 25 68 20 74 74 W 3 6 30.06 1018 10 16.09344 0 0
8:55 am 08:55 Sunny 77 25 68 20 74 74 WNW 5 7 30.06 1018 10 16.09344 0 0
9:15 am 09:15 Sunny 79 26 68 20 70 70 WSW 6 9 30.06 1018 10 16.09344 0 0
9:35 am 09:35 Sunny 79 26 68 20 70 70 NW 5 7 30.06 1018 10 16.09344 0 0
9:55 am 09:55 Sunny 81 27 68 20 66 66 WNW 6 9 30.06 1018 10 16.09344 0 0
10:15 am 10:15 Sunny 82 28 70 21 66 66 W 9 15 30.06 1018 10 16.09344 0 0
10:35 am 10:35 Sunny 82 28 70 21 66 66 NW 6 9 30.06 1018 10 16.09344 0 0
11:15 am 11:15 Sunny 84 29 68 20 58 58 WNW 12 19 30.03 1017 10 16.09344 0 0
11:35 am 11:35 Sunny 86 30 68 20 55 55 WNW 13 20 30.03 1017 10 16.09344 0 0
11:55 am 11:55 Partly Cloudy 86 30 68 20 55 55 W 15 24 30.03 1017 10 16.09344 0 0
12:15 pm 12:15 Partly Cloudy 86 30 70 21 59 59 NW 13 20 30.03 1017 10 16.09344 0 0
12:35 pm 12:35 Mostly Cloudy 84 29 70 21 62 62 NNW 13 20 30.03 1017 10 16.09344 0 0
12:55 pm 12:55 Partly Cloudy 82 28 70 21 66 66 NW 9 15 30.03 1017 10 16.09344 0 0
1:15 pm 13:15 Sunny 82 28 70 21 66 66 WNW 8 13 30 1016 10 16.09344 0 0
1:35 pm 13:35 Partly Cloudy 84 29 70 21 62 62 NNW 9 15 30 1016 10 16.09344 0 0
1:55 pm 13:55 Partly Cloudy with Nearby Thunderstorms 84 29 72 22 66 66 NNW 8 13 30 1016 10 16.09344 0 0
2:15 pm 14:15 Partly Cloudy 86 30 72 22 62 62 NW 5 7 30 1016 10 16.09344 0 0
2:35 pm 14:35 Partly Cloudy 86 30 70 21 59 59 NNW 5 7 30 1016 10 16.09344 0 0
2:55 pm 14:55 Partly Cloudy 86 30 70 21 59 59 WNW 8 13 30 1016 10 16.09344 0 0
3:15 pm 15:15 Partly Cloudy 88 31 70 21 55 55 W 6 9 29.94 1014 10 16.09344 0 0
3:35 pm 15:35 Partly Cloudy 86 30 68 20 55 55 WNW 13 20 29.94 1014 10 16.09344 0 0
3:55 pm 15:55 Sunny 88 31 68 20 52 52 WNW 10 17 29.94 1014 10 16.09344 0 0
4:15 pm 16:15 Sunny 88 31 70 21 55 55 NW 8 13 29.91 1013 10 16.09344 0 0
4:35 pm 16:35 Sunny 88 31 70 21 55 55 Calm 29.91 1013 10 16.09344 0 0
4:55 pm 16:55 Sunny 86 30 68 20 55 55 WNW 7 11 29.91 1013 10 16.09344 0 0
5:15 pm 17:15 Partly Cloudy 88 31 70 21 55 55 WNW 5 7 29.91 1013 10 16.09344 0 0
5:35 pm 17:35 Partly Cloudy 86 30 70 21 59 59 NNW 7 11 29.91 1013 10 16.09344 0 0
5:55 pm 17:55 Sunny 86 30 72 22 62 62 WNW 8 13 29.91 1013 10 16.09344 0 0
6:15 pm 18:15 Sunny 86 30 72 22 62 62 Calm 29.91 1013 10 16.09344 0 0
6:35 pm 18:35 Sunny 84 29 70 21 62 62 Calm 29.94 1014 10 16.09344 0 0
6:55 pm 18:55 Sunny 82 28 72 22 70 70 W 3 6 29.94 1014 10 16.09344 0 0
7:35 pm 19:35 Partly Cloudy 82 28 72 22 70 70 Calm 29.94 1014 10 16.09344 0 0
7:55 pm 19:55 Sunny 81 27 72 22 74 74 SW 6 9 29.94 1014 10 16.09344 0 0
8:15 pm 20:15 Sunny 81 27 72 22 74 74 SSW 7 11 29.94 1014 10 16.09344 0 0
8:35 pm 20:35 Clear 81 27 72 22 74 74 SW 5 7 29.91 1013 10 16.09344 0 0
8:55 pm 20:55 Clear 79 26 72 22 79 79 WSW 6 9 29.94 1014 10 16.09344 0 0
9:15 pm 21:15 Clear 79 26 72 22 79 79 WNW 3 6 29.94 1014 10 16.09344 0 0
9:35 pm 21:35 Partly Cloudy 79 26 72 22 79 79 NNW 8 13 29.97 1015 10 16.09344 0 0
9:55 pm 21:55 Mostly Cloudy 79 26 72 22 79 79 N 9 15 29.97 1015 10 16.09344 0 0
10:15 pm 22:15 Mostly Cloudy 79 26 68 20 70 70 NNE 7 11 29.97 1015 10 16.09344 0 0
10:35 pm 22:35 Mostly Cloudy 77 25 66 19 69 69 Calm 29.97 1015 10 16.09344 0 0
10:55 pm 22:55 Cloudy 77 25 66 19 69 69 W 3 6 29.97 1015 10 16.09344 0 0
11:15 pm 23:15 Cloudy 75 24 68 20 78 78 NW 6 9 29.97 1015 10 16.09344 0 0
11:35 pm 23:35 Cloudy 75 24 68 20 78 78 NW 6 9 29.97 1015 10 16.09344 0 0
11:55 pm 23:55 Mostly Cloudy 75 24 68 20 78 78 WNW 7 11 29.97 1015 10 16.09344 0 0

Powered by AerisWeather